Regional Weather Roundup
Issued by NWS

Home | Current Version | Previous Version | Text Only | Print | Product List | Glossary On
Versions: 1 2 3 4 5 6 7 8 9 10 11 12 13 14 15 16 17 18 19 20 21 22 23 24 25 26 27 28 29 30 31 32 33 34 35 36 37 38 39 40 41 42 43 44 45 46 47 48 49 50
000
ASUS45 KBOI 300410
RWRID

IDAHO REGIONAL WEATHER ROUNDUP
NATIONAL WEATHER SERVICE BOISE ID
1000 PM MDT SAT AUG 29 2015

NOTE: "FAIR" INDICATES FEW OR NO CLOUDS BELOW 12000 FEET
WITH NO SIGNIFICANT WEATHER AND/OR OBSTRUCTIONS TO VISIBILITY

IDZ012-014-300500-
SOUTHWEST IDAHO


CITY           SKY/WX    TMP DP  RH WIND       PRES   REMARKS
BOISE          MOCLDY    79  47  32 NW13G24   29.82R
CALDWELL         N/A     73  45  35 N6        29.81R
MOUNTAIN HOME  CLOUDY    81  43  26 NW12G18   29.81R
$$

IDZ016-017-300500-
SOUTHCENTRAL IDAHO


CITY           SKY/WX    TMP DP  RH WIND       PRES   REMARKS
BURLEY         CLOUDY    73  55  53 NW3       29.85F
JEROME         MOCLDY    72  46  39 W5        29.88R
TWIN FALLS     CLOUDY    75  40  28 W10       29.88R
$$

IDZ019>023-300500-
SOUTHEAST IDAHO


CITY           SKY/WX    TMP DP  RH WIND       PRES   REMARKS
IDAHO FALLS    CLOUDY    66  53  63 N7        29.92F
POCATELLO      TSTM      65  59  81 SW17G41   29.96R
REXBURG        CLOUDY    72  46  39 SE13G21   29.95F
$$

IDZ006-010-011-018-031-032-300500-
CENTRAL IDAHO MOUNTAINS


CITY           SKY/WX    TMP DP  RH WIND       PRES   REMARKS
MCCALL         MOCLDY    62  47  57 W7        29.95R
HAILEY         MOCLDY    68  41  37 NW7       29.97R
STANLEY          N/A     66  35  31 E6        30.06R
SALMON         MOCLDY    72  37  28 SE5       29.81R
CHALLIS        PTCLDY    74  32  21 W10       29.91R
$$

IDZ002-004-006-007-026-300500-
NORTHERN IDAHO


CITY           SKY/WX    TMP DP  RH WIND       PRES   REMARKS
LEWISTON       NOT AVBL
LOWELL           N/A     62  58  86 CALM      29.89R
COEUR D`ALENE  PTCLDY    63  50  63 S10       29.85R
MULLAN PASS    MOCLDY    49  41  74 SW6       30.00R
$$


USA.gov is the U.S. government's official web portal to all federal, state and local government web resources and services.